This demonstration page uses our WeatherBlox Daily Observations layout. Learn more.

Left ArrowRight Arrow

40.92945, -100.16068

Hourly Observations for November 26, 2019

Temp ( °F °C ) Dew Point ( °F °C ) Humidity (%) Winds ( mph kmh ) Pressure ( in mb ) Visibility ( mi km ) Precip ( " mm )
12:15 am 00:15 Clear 28 -2.2 23 -5.2 80 80 NNE 5 7 29.86 1011 10 16.0934 0 0
12:35 am 00:35 Partly Cloudy 26 -3.6 22 -5.8 85 85 N 6 9 29.87 1012 10 16.0934 0 0
12:55 am 00:55 Mostly Cloudy 27 -2.6 23 -5.1 83 83 NNE 7 11 29.85 1011 10 16.0934 0 0
1:15 am 01:15 Cloudy 28 -2.1 23 -4.9 81 81 NNE 7 11 29.85 1011 10 16.0934 0 0
1:35 am 01:35 Mostly Cloudy 28 -2.1 23 -5 81 81 NE 8 13 29.84 1010 10 16.0934 0 0
1:55 am 01:55 Partly Cloudy 28 -2.2 23 -5 81 81 NE 10 17 29.82 1010 10 16.0934 0 0
2:15 am 02:15 Clear 29 -1.4 23 -5 77 77 NE 10 17 29.81 1009 10 16.0934 0 0
2:35 am 02:35 Mostly Cloudy 30 -1 24 -4.6 77 77 NE 9 15 29.81 1009 10 16.0934 0 0
2:55 am 02:55 Cloudy 31 -0.6 23 -4.8 74 74 NE 10 17 29.8 1009 10 16.0934 0 0
3:15 am 03:15 Cloudy 31 -0.3 24 -4.5 74 74 ENE 13 20 29.79 1009 10 16.0934 0 0
3:35 am 03:35 Cloudy 32 -0.1 24 -4.2 74 74 ENE 14 22 29.77 1008 10 16.0934 0 0
3:55 am 03:55 Cloudy 32 -0.1 25 -4.1 75 75 ENE 18 30 29.74 1007 10 16.0934 0 0
4:15 am 04:15 Mostly Cloudy 31 -0.3 25 -3.7 78 78 ENE 15 24 29.73 1007 10 16.0934 0 0
4:35 am 04:35 Partly Cloudy 32 -0.1 26 -3.1 80 80 ENE 20 31 29.72 1006 10 16.0934 0 0
4:55 am 04:55 Mostly Cloudy 32 -0.2 27 -3 82 82 ENE 17 28 29.72 1006 10 16.0934 0 0
5:15 am 05:15 Cloudy 32 -0.1 27 -2.7 83 83 ENE 15 24 29.73 1007 10 16.0934 0 0
5:35 am 05:35 Cloudy 32 -0.1 27 -2.6 83 83 ENE 12 19 29.75 1007 10 16.0934 0 0
5:55 am 05:55 Cloudy 32 0 27 -2.6 83 83 ENE 13 20 29.76 1008 10 16.0934 0 0
6:15 am 06:15 Cloudy 32 -0.1 27 -2.6 83 83 ENE 15 24 29.76 1008 10 16.0934 0 0
6:35 am 06:35 Cloudy 31 -0.3 28 -2.5 85 85 ENE 14 22 29.76 1008 10 16.0934 0 0
6:55 am 06:55 Cloudy 31 -0.3 28 -2.3 87 87 ENE 16 26 29.76 1008 10 16.0934 0 0
7:15 am 07:15 Cloudy 31 -0.5 28 -2.3 88 88 ENE 20 31 29.76 1008 10 16.0934 0 0
7:35 am 07:35 Cloudy 31 -0.5 28 -2.3 88 88 ENE 17 28 29.74 1007 10 16.0934 0 0
7:55 am 07:55 Cloudy 31 -0.6 28 -2.3 88 88 ENE 17 28 29.74 1007 10 16.0934 0 0
8:15 am 08:15 Cloudy with Light Snow 31 -0.7 28 -2 91 91 NE 17 28 29.74 1007 7 11.26538 0 0
8:35 am 08:35 Cloudy with Light Snow 31 -0.7 28 -2 91 91 NE 16 26 29.74 1007 5 8.0467 0 0
8:55 am 08:55 Cloudy with Light Snow 30 -1 29 -1.7 95 95 NE 17 28 29.74 1007 1.75 2.816345 0 0
9:15 am 09:15 Cloudy with Light Snow 30 -1 29 -1.5 96 96 NE 15 24 29.73 1007 0.75 1.207005 0 0
9:35 am 09:35 Cloudy with Light Snow 31 -0.8 29 -1.5 95 95 NE 16 26 29.72 1007 0.75 1.207005 0 0
9:55 am 09:55 Cloudy with Light Snow 31 -0.8 29 -1.6 94 94 NE 17 28 29.72 1007 1.75 2.816345 0 0
10:15 am 10:15 Cloudy with Light Snow 31 -0.7 29 -1.5 94 94 NE 17 28 29.72 1007 1.25 2.011675 0 0
10:35 am 10:35 Cloudy with Light Snow 31 -0.7 29 -1.5 94 94 NE 18 30 29.71 1006 1 1.60934 0 0
10:55 am 10:55 Cloudy with Light Snow 31 -0.8 29 -1.5 95 95 NE 16 26 29.7 1006 0.75 1.207005 0.01 0.254
11:15 am 11:15 Cloudy with Snow 31 -0.8 29 -1.5 95 95 NE 20 31 29.69 1006 0.5 0.80467 0 0
11:35 am 11:35 Cloudy with Snow 31 -0.8 29 -1.5 95 95 NE 15 24 29.68 1005 0.25 0.402335 0.01 0.254
11:55 am 11:55 Cloudy with Snow 31 -0.8 29 -1.5 95 95 NE 20 31 29.66 1005 0.25 0.402335 0.02 0.508
12:15 pm 12:15 Cloudy with Snow 31 -0.8 29 -1.4 96 96 NNE 20 31 29.65 1004 0.5 0.80467 0 0
12:35 pm 12:35 Cloudy with Light Snow 31 -0.7 29 -1.5 94 94 NNE 17 28 29.63 1003 0.5 0.80467 0.01 0.254
12:55 pm 12:55 Cloudy with Snow 31 -0.7 29 -1.5 94 94 NNE 20 31 29.62 1003 0.5 0.80467 0.01 0.254
1:15 pm 13:15 Cloudy with Snow 31 -0.8 29 -1.5 95 95 NNE 21 33 29.61 1003 0.5 0.80467 0.01 0.254
1:35 pm 13:35 Cloudy with Light Snow 31 -0.8 29 -1.7 94 94 NNE 18 30 29.6 1002 1 1.60934 0.01 0.254
1:55 pm 13:55 Windy with Snow Likely 31 -0.8 29 -1.8 93 93 NNE 21 33 29.59 1002 0.75 1.207005 0.01 0.254
2:15 pm 14:15 Windy with Snow Likely 31 -0.7 29 -1.8 92 92 NNE 22 35 29.59 1002 1 1.60934 0 0
2:35 pm 14:35 Windy with Snow Likely 31 -0.8 29 -1.7 94 94 NNE 25 41 29.59 1002 0.5 0.80467 0 0
2:55 pm 14:55 Windy with Snow Likely 30 -1 29 -1.9 94 94 N 22 35 29.61 1003 0.75 1.207005 0.01 0.254
3:15 pm 15:15 Windy with Snow Likely 30 -1.1 29 -1.9 94 94 N 21 33 29.63 1003 0.5 0.80467 0 0
3:35 pm 15:35 Cloudy with Snow 30 -1.3 28 -2.1 94 94 N 26 43 29.64 1004 0.5 0.80467 0 0
3:55 pm 15:55 Cloudy with Snow 29 -1.5 28 -2.2 95 95 N 28 44 29.65 1004 0.25 0.402335 0 0
4:15 pm 16:15 Cloudy with Snow 29 -1.8 28 -2.4 96 96 N 26 43 29.67 1005 0.25 0.402335 0 0
4:35 pm 16:35 Cloudy with Snow 29 -1.9 27 -2.6 95 95 N 22 35 29.69 1006 0.25 0.402335 0 0
4:55 pm 16:55 Cloudy with Light Snow 28 -2 27 -2.8 94 94 N 18 30 29.72 1006 0.75 1.207005 0 0
5:15 pm 17:15 Cloudy with Snow 28 -2.2 27 -3 94 94 N 22 35 29.74 1007 0.5 0.80467 0 0
5:35 pm 17:35 Cloudy with Snow 28 -2.5 26 -3.2 95 95 N 23 37 29.75 1007 1 1.60934 0 0
5:55 pm 17:55 Cloudy with Snow 27 -2.8 26 -3.5 95 95 N 28 44 29.76 1008 0.75 1.207005 0 0
6:15 pm 18:15 Cloudy with Snow 27 -2.7 26 -3.5 94 94 N 31 50 29.77 1008 1 1.60934 0 0
6:35 pm 18:35 Windy with Snow Likely 27 -2.6 26 -3.5 94 94 N 25 41 29.78 1009 1 1.60934 0 0
6:55 pm 18:55 Windy with Snow Likely 28 -2.5 26 -3.4 94 94 N 24 39 29.79 1009 1.75 2.816345 0 0
7:15 pm 19:15 Windy with Snow Likely 28 -2.5 26 -3.6 92 92 N 31 50 29.81 1010 1.25 2.011675 0 0
7:35 pm 19:35 Windy with Snow Likely 27 -2.6 25 -3.9 91 91 NNW 30 48 29.81 1010 1.75 2.816345 0 0
7:55 pm 19:55 Windy with Snow Likely 27 -2.8 25 -3.7 94 94 NNW 22 35 29.83 1010 2 3.21868 0 0
8:15 pm 20:15 Windy with Snow Likely 27 -2.8 24 -4.2 90 90 NNW 26 43 29.85 1011 4 6.43736 0 0
8:35 pm 20:35 Windy with Snow Likely 27 -3 24 -4.5 90 90 NNW 21 33 29.88 1012 5 8.0467 0 0
8:55 pm 20:55 Cloudy 27 -3 24 -4.7 88 88 NNW 23 37 29.89 1012 7 11.26538 0 0
9:15 pm 21:15 Cloudy 26 -3.1 23 -5 87 87 NW 18 30 29.9 1012 10 16.0934 0 0
9:35 pm 21:35 Cloudy 26 -3.3 23 -5.1 88 88 NW 21 33 29.91 1013 10 16.0934 0 0
9:55 pm 21:55 Cloudy 26 -3.5 22 -5.5 86 86 NW 18 30 29.92 1013 10 16.0934 0 0
10:15 pm 22:15 Mostly Cloudy 25 -4 22 -5.7 88 88 NW 21 33 29.94 1014 10 16.0934 0 0
10:35 pm 22:35 Partly Cloudy 25 -4 21 -6.1 86 86 NW 21 33 29.96 1014 10 16.0934 0 0
10:55 pm 22:55 Partly Cloudy 25 -4 21 -6.3 84 84 NNW 21 33 29.97 1015 10 16.0934 0 0
11:15 pm 23:15 Mostly Cloudy 25 -4 20 -6.5 83 83 NW 18 30 29.99 1015 10 16.0934 0 0
11:35 pm 23:35 Cloudy 26 -3.5 21 -6.1 82 82 NNW 22 35 29.99 1016 10 16.0934 0 0
11:55 pm 23:55 Mostly Cloudy 25 -4.1 20 -6.6 83 83 NW 18 30 30.01 1016 10 16.0934 0 0

Powered by AerisWeather